N0BHC Weather Reports


Display with metric or nautical units.
time (UTC)temp
F
wind
direction
speed
MPH
gust
MPH
rain 1hr
in
rain 24hr
in
rain mn
in
humidity
%
barometer
mb
20201126065022 40 278 5.0 5.0 0.00 0.00 0.00 79 1011.0
20201126063025 40 205 3.0 6.0 0.00 0.00 0.00 79 1011.2
20201126060018 40 196 0.0 3.0 0.00 0.00 0.00 78 1011.3
20201126051017 40 217 0.0 6.0 0.00 0.00 0.00 78 1011.7
20201126050019 40 264 6.0 8.0 0.00 0.00 0.00 79 1011.6
20201126044005 40 226 6.0 8.0 0.00 0.00 0.00 78 1011.4
20201126042010 40 294 3.0 7.0 0.00 0.00 0.00 79 1011.4
20201126035006 40 292 3.0 5.0 0.00 0.00 0.00 78 1011.6
20201126031009 40 265 1.0 8.0 0.00 0.00 0.00 79 1011.5
20201126025009 40 293 0.0 6.0 0.00 0.00 0.00 79 1011.4
20201126014007 40 158 0.0 0.0 0.00 0.00 0.00 78 1010.9
20201126013009 40 158 0.0 0.0 0.00 0.00 0.00 78 1011.0
20201126012010 40 200 0.0 0.0 0.00 0.00 0.00 78 1011.0
20201126011011 40 200 0.0 0.0 0.00 0.00 0.00 78 1011.1
20201126003014 40 200 0.0 0.0 0.00 0.00 0.00 78 1010.9
20201126001019 40 227 0.0 7.0 0.00 0.00 0.00 78 1010.9
20201125224016 40 176 0.0 0.0 0.00 0.00 0.00 78 1010.6
20201125223004 40 176 0.0 0.0 0.00 0.00 0.00 78 1010.8
20201125215001 40 176 0.0 2.0 0.00 0.00 0.00 78 1010.7
20201125213004 40 48 0.0 0.0 0.00 0.00 0.00 78 1010.8
20201125211016 40 48 0.0 0.0 0.00 0.00 0.00 78 1011.0
20201125205007 40 48 0.0 0.0 0.00 0.00 0.00 78 1011.0
20201125194008 41 44 0.0 0.0 0.00 0.00 0.00 79 1011.6
20201125190010 41 48 0.0 0.0 0.00 0.00 0.00 80 1011.8
20201125184019 41 48 0.0 0.0 0.00 0.00 0.00 80 1012.0
20201125180018 40 47 2.0 6.0 0.00 0.00 0.00 80 1012.2
20201125174019 40 44 0.0 0.0 0.00 0.00 0.00 80 1012.3
20201125172007 40 44 0.0 0.0 0.00 0.00 0.00 80 1012.5
20201125171004 40 143 1.0 5.0 0.00 0.00 0.00 80 1012.5
20201125170010 39 49 0.0 0.0 0.00 0.00 0.00 80 1012.6
20201125161018 40 167 0.0 2.0 0.00 0.00 0.00 80 1012.5
20201125154008 40 82 0.0 0.0 0.00 0.00 0.00 80 1012.6
20201125152008 40 82 2.0 2.0 0.00 0.00 0.00 80 1012.5
20201125145008 40 120 3.0 7.0 0.00 0.00 0.00 80 1012.3
20201125134010 40 63 3.0 8.0 0.00 0.00 0.00 80 1011.8
20201125125019 41 32 0.0 5.0 0.00 0.00 0.00 80 1011.6
20201125122008 41 20 2.0 2.0 0.00 0.00 0.00 80 1011.5
20201125114008 41 48 6.0 7.0 0.00 0.00 0.00 80 1011.5
20201125104008 41 36 5.0 7.0 0.00 0.00 0.00 80 1011.5
20201125092011 41 48 0.0 0.0 0.00 0.00 0.00 80 1011.4
20201125072009 41 30 0.0 0.0 0.00 0.00 0.00 80 1011.2